Regional Weather Roundup
Issued by NWS

Home | Current Version | Previous Version | Text Only | Print | Product List | Glossary On
Versions: 1 2 3 4 5 6 7 8 9 10 11 12 13 14 15 16 17 18 19 20 21 22 23 24 25 26 27
000
ASUS45 KPSR 290410
RWRAZ

ARIZONA HOURLY REGIONAL WEATHER ROUNDUP
NATIONAL WEATHER SERVICE PHOENIX AZ
900 PM MST THU APR 28 2016

NOTE: FAIR INDICATES FEW OR NO CLOUDS BELOW 12,000 FEET WITH NO
SIGNIFICANT WEATHER AND/OR OBSTRUCTIONS TO VISIBILITY.

AZZ001>003-036-290500-
NORTHWEST ARIZONA

CITY           SKY/WX    TMP DP  RH WIND       PRES   REMARKS
BULLHEAD CITY  CLOUDY    63  52  67 NE10      29.80R
KINGMAN        LGT RAIN  49  46  90 NE9       29.85R
$$

AZZ004>008-015-016-018-290500-
NORTH CENTRAL ARIZONA

CITY           SKY/WX    TMP DP  RH WIND       PRES   REMARKS
GRAND CANYON   CLOUDY    38  36  92 SW7       29.86R WCI  33
WILLIAMS       CLOUDY    37  36  93 W6        29.94R WCI  33
PRESCOTT       CLOUDY    45  40  82 NW5       29.85R
FLAGSTAFF      PTCLDY    33  30  88 W3        29.87R
PAYSON         CLOUDY    48  32  53 NW9       29.87R
PAGE           LGT RAIN  50  40  68 W5        29.80R
$$

AZZ009>014-017-290500-
NORTHEAST ARIZONA

CITY           SKY/WX    TMP DP  RH WIND       PRES   REMARKS
WINSLOW        PTCLDY    45  25  45 W8        29.83R
SAINT JOHNS    CLOUDY    49  23  36 S14       29.83R
WINDOW ROCK    PTCLDY    41   6  23 S5        29.85R
SHOW LOW       PTCLDY    41   7  24 S9        29.87R
$$

AZZ023-290500-
GREATER PHOENIX AREA

CITY           SKY/WX    TMP DP  RH WIND       PRES   REMARKS
PHOENIX        PTCLDY    70  29  21 VRB6      29.73R
BUCKEYE        PTCLDY    66  32  28 NW8       29.76R
LUKE AFB       CLEAR     67  36  32 NW7       29.74R
DEER VALLEY    CLEAR     67  29  24 NW7       29.75R
SCOTTSDALE     PTCLDY    69  30  23 NW3       29.76R
MESA-GATEWAY   PTCLDY    64  25  22 SW6       29.76R
CHANDLER       CLEAR     68  25  19 SW12      29.75R
$$

AZZ027-028-290500-
SOUTHWEST MARICOPA COUNTY AND PINAL COUNTY

CITY           SKY/WX    TMP DP  RH WIND       PRES   REMARKS
CASA GRANDE    CLEAR     64  27  24 W6        29.79R
GILA BEND      PTCLDY    68  35  30 SW13      29.75R
$$

AZZ503-504-507>509-290500-
SOUTHEAST ARIZONA

CITY           SKY/WX    TMP DP  RH WIND       PRES   REMARKS
TUCSON         MOCLDY    66  17  15 NW9       29.83R
DAVIS-MONTHAN  PTCLDY    64  23  21 NW13      29.81R
NOGALES        CLEAR     54  32  43 SW5       29.87R
SIERRA VISTA   CLEAR     54  29  38 W16       29.87R
DOUGLAS        PTCLDY    60  24  25 W22G33    29.84R
SAFFORD        PTCLDY    61  27  27 W9        29.77R
$$

AZZ020-021-025-026-031-290500-
SOUTHWEST ARIZONA

CITY           SKY/WX    TMP DP  RH WIND       PRES   REMARKS
YUMA           PTCLDY    67  42  40 W8        29.77R
$$

CAZ031-033-041-043-047-048-061-290500-
SOUTHERN CALIFORNIA

CITY           SKY/WX    TMP DP  RH WIND       PRES   REMARKS
DOWNTOWN L.A.  CLEAR     58  50  75 W5        29.91R
L.A. AIRPORT   PTCLDY    59  50  72 N5        29.92R
SAN DIEGO      MOCLDY    61  48  62 SW5       29.97R
BURBANK        CLEAR     57  49  74 S8        29.90R
ONTARIO        PTCLDY    57  42  57 W9        29.91R
RIVERSIDE      CLEAR     59  42  53 NW5       29.91R
PALM SPRINGS   CLEAR     71  39  31 NW23G33   29.77R
EL CENTRO NAS  PTCLDY    66  41  40 W17       29.79R
IMPERIAL       CLEAR     66  43  43 W15       29.76R
BLYTHE         PTCLDY    72  42  34 SW13      29.73R
NEEDLES        MOCLDY    67  50  54 NW7       29.76R
$$

NVZ020-UTZ003-290500-
SOUTHERN NEVADA-UTAH

CITY           SKY/WX    TMP DP  RH WIND       PRES   REMARKS
LAS VEGAS      CLOUDY    57  51  80 W3        29.77R
SALT LAKE CITY MOCLDY    51  32  48 NE7       29.83R
$$

NMZ009-TXZ055-290500-
NEW MEXICO-WEST TEXAS

CITY           SKY/WX    TMP DP  RH WIND       PRES   REMARKS
ALBUQUERQUE    MOCLDY    62   9  12 S8        29.74R
EL PASO        CLEAR     72  23  16 W24G32    29.71S
$$


........................KEY........................
SKY/WX - SKY CONDITION/WEATHER
TMP    - TEMPERATURE IN FAHRENHEIT
DP     - DEW POINT IN FAHRENHEIT
RH     - RELATIVE HUMIDITY IN PERCENT
WIND   - DIRECTION AND SPEED IN MILES PER HOUR (MPH)
VRB    - VARIABLE WIND DIRECTION
PRES   - MEAN SEA LEVEL PRESSURE IN INCHES OF MERCURY
         F - FALLING PRESSURE   R - RISING PRESSURE
         S - STEADY PRESSURE
VSB    - VISIBILITY IN MILES
HX     - HEAT INDEX IN FAHRENHEIT
WCI    - WIND CHILL INDEX IN FAHRENHEIT
TC     - TEMPERATURE IN CELSIUS WHICH IS ALSO KNOWN AS
         TEMPERATURE IN CENTIGRADE
AFB    - AIR FORCE BASE
         LUKE AFB IS LUKE AIR FORCE BASE
         DAVIS-MONTHAN IS DAVIS-MONTHAN AIR FORCE BASE
NAS    - NAVAL AIR STATION
         EL CENTRO NAS IS EL CENTRO NAVAL AIR STATION
N/A    - NOT AVAILABLE





USA.gov is the U.S. government's official web portal to all federal, state and local government web resources and services.